Showing default

EXPRESS 103, 45985

Orbit data source: Space-Track

EXPRESS 103, 45985 is a payload satellite owned by KosSvyaz (CIS) in GEO that was launched on Thu, 30 Jul 2020 UTC via a PROTON-M/BRIZ-M launch vehicle from the Tyuratam Missile And Space Complex (TTMTR). Payload-class satellites include a variety of spacecraft equipped with specific instruments for various scientific and technological missions. These include communications satellites like Starlink; space stations such as the ISS; scientific satellites like the Hubble; Earth observation satellites from companies like Planet Labs, Umbra, and HawkEye 360; GPS; miniature CubeSats for education and research; and military/defense satellites.

Not visible in the next 10 days
Identifier
45985, 2020-053A
Orbit
GEO
Last TLE update
10 hours ago
Origin
Manufacturer
Resehetnev ISS
Mission
Operational Commercial Communications
Bus & Motor
EKSPRESS-1000N, AOCS
Mass
2,280 kg wet, ~1,800 kg dry
Launch date (UTC)
2020-07-30 (5 years ago)
Launch vehicle
PROTON-M/BRIZ-M
Launch site
Tyuratam Missile And Space Complex (TTMTR)
Object type
Payload
Rocket body
Debris
Shape & HBR
Box + 2 Pan, Unknown HBR
Radar Cross Section
16.987 m², Large (>1 m²)

Expand to show TLE details & history

TLE from 10 hours ago
0 EXPRESS 103
1 45985U 20053A   25191.59896242 -.00000269  00000-0  00000-0 0  9992
2 45985   0.0154 340.9173 0000104  63.7822 196.1827  1.00272718 18228
Epoch: 2025-07-10T14:22Z
TLE epoch observation values (Epoch: 2025-07-10T14:22:30.353Z)
Latitude
-0.02818°
Longitude
96.49595°
Altitude
35,786.248 km
Speed
3.075 km/s
True Right ascension
16h 03m 32s
True Declination
0° 01' 41"
Sunlit
Object was in daylight at epoch
Visualization orbit readout
Latitude
0.01762°
Longitude
-106.59067°
Altitude
35,785.434 km
Speed
3.075 km/s
Apparent Right ascension
02h 22m 20s
Apparent Declination
-4° 57' 38"
Sunlit
Object is in daylight
Visualization observer readout
Local Sidereal Time
13:04:43
Azimuth
328.334° NNW
Elevation
-50.913°
Doppler factor
1
Orbital elements
Apogee altitude
35,787.842 km
Perigee altitude
35,786.965 km
Semi-major axis
42,165.541 km
Eccentricity
0.00001
Inclination
0.0154°
RAAN
340.9173°
Arg. of periapsis
63.7822°
True anomaly
Unknown
Mean anomaly
196.1827°
Eccentric anomaly
Unknown
Mean motion
0.25067 °/min
Orbital period
1,436.14 mins
BSTAR
0
Loading historical data...
45985 neighbors
Loading maneuver chart data...
Loading SW <> Apogee altitude chart data...
Loading historical data...
Loading historical data...
Loading historical data...
Loading historical data...
Loading historical data...
Loading historical data...
Loading historical data...
Other satellites on launch #53 in the year 2020 (2020-07-30 UTC)

EXPRESS 103 Visibility

Observer location: undefined°, undefined°

EXPRESS 103 is likely not visible in the next few days
Span
Click to sort rows by Start time (UTC) header in descending order
Start Az.
Max El. time (UTC)
Max El. Az.
Max El.
End time (UTC)
End Az.
|